Torna al catalogo

THORAD AGENA D DEB

AttivoPO
NORAD 6157·DEBRIS·🇺🇸 United States

Lanciato Apr 8, 1970 da Vandenberg Space Force Base

Loading…

Prossimi Passaggi (prossime 24 ore)

TLE

AggiornatoSource: Space-Track

Epoca: Sep 13, 2026, 07:52 UTC

1 06157U 70025MX  26256.32840786  .00001546  00000-0  72114-3 0  9996
2 06157  99.8910  91.8175 0012763 125.7554 234.4809 14.22164772858452

Traccia THORAD AGENA D DEB in tempo reale con AllMySat

Download on the App Store